Language: 


Des rapports , des résumés tant et plus, au choix de chacun....


Données statistiques de la station
Quotidien Rapport Janvier 17, 2018 Unités:  Anglais    Métrique   les deux
« Précédent Jour
Suivant Jour »
Quotidien Hebdomadaire Mensuel Annuel Actuel
  Haut: Bas: Moyen:
Température: TemperatureC °F 2.4 °F 4.9 °F
Pt de rosée: DewpointC °F -1.0 °F 1 °F
Humidité: Humidity % 55 % 74 %
Vitesse du vent: WindSpeedKMH mph 0.0 mph 14.8 mph
Rafales: WindSpeedGustKMH mph - -
Vent:- - West
Pression: PressurehPa in 995.1 in -
Précipitation: 0.0 in    
Historical Graphs
 
 
Données statistiques pour Janvier 17, 2018
Heure Température Point de rosée Pression Vent Vitesse du vent Refales Humidité Pluie (taux horaire)
TemperatureC °F DewpointC °F PressurehPa in Calm     Humidity % HourlyPrecipMM in
00:01 4.2 °F 3.0 °F 995.1 in West 22.7 mph 24.8 mph 94 % 0.0 in
00:12 4.2 °F 3.0 °F 995.1 in West 27.7 mph 27.7 mph 94 % 0.0 in
00:17 4.4 °F 2.0 °F 995.1 in WSW 19.5 mph 27.7 mph 85 % 0.0 in
00:31 4.4 °F 2.0 °F 995.1 in West 24.5 mph 24.5 mph 85 % 0.0 in
00:37 4.4 °F 2.0 °F 995.1 in WNW 20.6 mph 30.2 mph 85 % 0.0 in
00:59 4.4 °F 2.0 °F 995.1 in West 23.8 mph 25.3 mph 85 % 0.0 in
01:19 4.4 °F 2.0 °F 996.2 in West 10.1 mph 25.6 mph 85 % 0.0 in
01:28 4.4 °F 2.0 °F 996.2 in West 15.4 mph 32.0 mph 85 % 0.0 in
01:46 4.4 °F 2.0 °F 995.1 in West 13.0 mph 24.5 mph 85 % 0.0 in
01:52 4.4 °F 2.0 °F 995.1 in West 8.7 mph 24.5 mph 85 % 0.0 in
01:59 4.4 °F 2.0 °F 995.1 in WSW 12.6 mph 22.4 mph 85 % 0.0 in
02:04 4.4 °F 2.0 °F 995.1 in West 15.8 mph 22.4 mph 85 % 0.0 in
02:12 4.4 °F 1.0 °F 995.1 in WSW 10.5 mph 23.0 mph 75 % 0.0 in
02:25 4.4 °F 1.0 °F 995.1 in West 14.0 mph 18.3 mph 75 % 0.0 in
02:45 4.4 °F 1.0 °F 995.1 in West 17.7 mph 27.7 mph 75 % 0.0 in
02:53 4.4 °F 1.0 °F 995.1 in WSW 28.0 mph 28.0 mph 75 % 0.0 in
02:58 4.4 °F 1.0 °F 996.2 in WNW 23.0 mph 28.0 mph 75 % 0.0 in
03:28 4.5 °F 0.0 °F 996.2 in West 19.8 mph 31.7 mph 71 % 0.0 in
03:35 4.4 °F 0.0 °F 996.2 in WSW 16.6 mph 31.7 mph 71 % 0.0 in
03:42 4.3 °F 0.0 °F 996.8 in WNW 12.6 mph 26.2 mph 71 % 0.0 in
03:50 4.0 °F -1.0 °F 996.8 in West 26.2 mph 26.2 mph 71 % 0.0 in
03:55 3.9 °F 0.0 °F 996.8 in WSW 13.7 mph 26.2 mph 72 % 0.0 in
04:04 3.7 °F -1.0 °F 996.8 in SW 35.2 mph 35.2 mph 72 % 0.0 in
04:12 3.6 °F -1.0 °F 996.8 in NW 13.7 mph 35.2 mph 72 % 0.0 in
04:20 3.5 °F -1.0 °F 996.8 in West 24.8 mph 27.0 mph 73 % 0.0 in
04:27 3.4 °F -1.0 °F 996.8 in WSW 21.9 mph 25.6 mph 73 % 0.0 in
04:33 3.4 °F -1.0 °F 996.8 in WSW 16.9 mph 24.8 mph 73 % 0.0 in
04:45 3.4 °F -1.0 °F 996.8 in West 16.6 mph 23.0 mph 73 % 0.0 in
04:56 3.5 °F -1.0 °F 996.8 in WSW 19.1 mph 26.7 mph 73 % 0.0 in
05:14 3.6 °F -1.0 °F 996.8 in WNW 6.1 mph 22.7 mph 72 % 0.0 in
05:42 3.3 °F -1.0 °F 997.9 in WNW 10.1 mph 27.7 mph 71 % 0.0 in
05:48 3.3 °F -1.0 °F 997.9 in West 11.9 mph 27.7 mph 71 % 0.0 in
05:56 3.3 °F -1.0 °F 998.9 in West 15.8 mph 24.8 mph 71 % 0.0 in
06:12 3.3 °F -1.0 °F 998.9 in WNW 20.9 mph 32.8 mph 71 % 0.0 in
06:18 3.3 °F -1.0 °F 998.9 in SSW 28.0 mph 28.0 mph 72 % 0.0 in
06:36 3.3 °F -1.0 °F 998.9 in West 27.4 mph 27.4 mph 72 % 0.0 in
06:41 3.3 °F -1.0 °F 998.9 in WNW 4.7 mph 27.4 mph 72 % 0.0 in
06:47 3.3 °F -1.0 °F 998.9 in WNW 6.9 mph 28.0 mph 72 % 0.0 in
06:57 3.3 °F -1.0 °F 997.9 in WSW 9.7 mph 23.0 mph 72 % 0.0 in
07:04 3.3 °F -1.0 °F 997.9 in South 13.7 mph 20.1 mph 72 % 0.0 in
07:23 3.3 °F -1.0 °F 999.9 in SW 20.6 mph 27.7 mph 72 % 0.0 in
07:35 3.0 °F -1.0 °F 999.9 in WNW 14.0 mph 31.4 mph 74 % 0.0 in
07:44 3.2 °F 0.0 °F 1000.9 in West 21.2 mph 24.5 mph 75 % 0.0 in
07:51 3.3 °F 0.0 °F 1000.9 in West 26.2 mph 26.2 mph 75 % 0.0 in
08:12 3.3 °F -1.0 °F 1000.9 in West 13.0 mph 27.4 mph 73 % 0.0 in
08:30 3.2 °F -1.0 °F 1001.9 in West 20.9 mph 20.9 mph 73 % 0.0 in
08:35 3.1 °F -1.0 °F 1001.9 in West 18.0 mph 22.4 mph 73 % 0.0 in
08:47 3.0 °F -1.0 °F 1001.9 in West 16.9 mph 24.5 mph 73 % 0.0 in
08:56 3.1 °F -1.0 °F 1001.9 in West 8.7 mph 27.7 mph 73 % 0.0 in
09:09 3.3 °F -1.0 °F 1001.9 in WSW 13.7 mph 31.7 mph 74 % 0.0 in
09:17 3.3 °F -1.0 °F 1001.9 in West 17.2 mph 25.3 mph 74 % 0.0 in
09:23 3.3 °F -1.0 °F 1001.9 in West 16.6 mph 25.6 mph 74 % 0.0 in
09:43 3.6 °F 0.0 °F 1002.9 in WSW 21.2 mph 27.0 mph 75 % 0.0 in
09:50 3.6 °F 0.0 °F 1002.9 in SW 9.3 mph 23.8 mph 75 % 0.0 in
09:56 3.8 °F 0.0 °F 1002.9 in WSW 17.7 mph 24.5 mph 75 % 0.0 in
10:05 4.0 °F 0.0 °F 1002.9 in West 13.7 mph 23.0 mph 74 % 0.0 in
10:11 4.0 °F 0.0 °F 1003.9 in WSW 26.2 mph 26.2 mph 74 % 0.0 in
10:17 4.2 °F 0.0 °F 1003.9 in SW 14.8 mph 26.2 mph 73 % 0.0 in
10:32 4.6 °F 0.0 °F 1005.0 in WSW 19.1 mph 33.5 mph 71 % 0.0 in
10:48 5.2 °F 0.0 °F 1005.0 in WSW 12.2 mph 23.3 mph 70 % 0.0 in
10:56 5.5 °F 1.0 °F 1005.0 in WNW 20.9 mph 25.9 mph 70 % 0.0 in
11:02 5.7 °F 1.0 °F 1005.0 in West 24.5 mph 24.8 mph 69 % 0.0 in
11:17 6.2 °F 1.0 °F 1003.9 in West 12.6 mph 24.8 mph 67 % 0.0 in
11:22 6.4 °F 1.0 °F 1003.9 in West 14.0 mph 17.7 mph 67 % 0.0 in
11:29 6.5 °F 1.0 °F 1005.0 in West 16.3 mph 27.4 mph 66 % 0.0 in
11:36 6.5 °F 1.0 °F 1005.0 in WSW 10.8 mph 27.4 mph 66 % 0.0 in
11:41 6.7 °F 1.0 °F 1005.0 in West 16.9 mph 30.6 mph 65 % 0.0 in
11:47 6.8 °F 1.0 °F 1005.0 in WSW 15.4 mph 30.6 mph 65 % 0.0 in
11:54 6.8 °F 1.0 °F 1005.0 in NW 20.1 mph 28.0 mph 64 % 0.0 in
12:00 7.0 °F 1.0 °F 1006.0 in NNW 23.8 mph 29.9 mph 63 % 0.0 in
12:11 7.2 °F 0.0 °F 1006.0 in WNW 12.6 mph 33.5 mph 61 % 0.0 in
12:22 7.3 °F 0.0 °F 1006.0 in NW 30.2 mph 37.5 mph 59 % 0.0 in
12:35 7.4 °F 0.0 °F 1006.0 in West 18.3 mph 30.6 mph 60 % 0.0 in
12:46 7.5 °F 1.0 °F 1006.0 in West 13.0 mph 31.7 mph 61 % 0.0 in
12:53 7.6 °F 1.0 °F 1006.0 in West 12.2 mph 31.7 mph 61 % 0.0 in
12:58 7.7 °F 1.0 °F 1007.0 in NW 27.7 mph 27.7 mph 60 % 0.0 in
13:05 7.5 °F 0.0 °F 1007.0 in West 18.0 mph 28.5 mph 59 % 0.0 in
13:15 7.4 °F 0.0 °F 1007.0 in North 16.3 mph 36.4 mph 60 % 0.0 in
13:29 7.3 °F 0.0 °F 1007.0 in SW 21.2 mph 38.5 mph 59 % 0.0 in
13:38 7.4 °F 0.0 °F 1007.0 in South 21.2 mph 37.5 mph 60 % 0.0 in
13:52 7.5 °F 0.0 °F 1007.0 in West 21.2 mph 37.8 mph 59 % 0.0 in
14:05 7.8 °F 0.0 °F 1007.0 in NW 21.6 mph 35.2 mph 57 % 0.0 in
14:25 7.9 °F 0.0 °F 1006.0 in West 29.9 mph 35.6 mph 56 % 0.0 in
14:32 7.9 °F 0.0 °F 1007.0 in WSW 35.6 mph 35.6 mph 56 % 0.0 in
14:38 8.0 °F 0.0 °F 1007.0 in West 17.2 mph 35.6 mph 56 % 0.0 in
14:44 8.0 °F 0.0 °F 1007.0 in West 27.4 mph 31.7 mph 57 % 0.0 in
14:52 7.9 °F -1.0 °F 1007.0 in WSW 25.3 mph 36.4 mph 55 % 0.0 in
15:01 7.6 °F -1.0 °F 1007.0 in WSW 16.3 mph 32.0 mph 56 % 0.0 in
15:06 7.6 °F 0.0 °F 1007.0 in WSW 20.6 mph 32.0 mph 58 % 0.0 in
15:14 7.9 °F 1.0 °F 1007.0 in WNW 15.8 mph 25.3 mph 59 % 0.0 in
15:20 7.7 °F 0.0 °F 1007.0 in West 27.7 mph 27.7 mph 58 % 0.0 in
15:26 7.5 °F 1.0 °F 1007.0 in West 27.7 mph 31.7 mph 60 % 0.0 in
16:05 7.2 °F 1.0 °F 1008.0 in West 11.6 mph 21.2 mph 64 % 0.0 in
16:11 6.9 °F 1.0 °F 1008.0 in WSW 15.1 mph 17.7 mph 66 % 0.0 in
16:18 6.7 °F 1.0 °F 1008.0 in West 13.7 mph 23.8 mph 68 % 0.0 in
16:38 6.3 °F 1.0 °F 1008.0 in WSW 20.6 mph 22.7 mph 70 % 0.0 in
17:04 5.6 °F 1.0 °F 1009.0 in WSW 13.7 mph 23.3 mph 72 % 0.0 in
17:12 5.6 °F 1.0 °F 1009.0 in WSW 15.4 mph 20.1 mph 73 % 0.0 in
17:20 5.4 °F 1.0 °F 1009.0 in West 15.4 mph 19.8 mph 73 % 0.0 in
17:30 5.4 °F 1.0 °F 1009.0 in West 10.5 mph 21.2 mph 74 % 0.0 in
17:35 5.5 °F 2.0 °F 1009.0 in West 16.3 mph 23.8 mph 75 % 0.0 in
17:40 5.6 °F 2.0 °F 1009.0 in WSW 18.0 mph 23.8 mph 75 % 0.0 in
17:50 5.7 °F 2.0 °F 1009.0 in West 15.4 mph 24.8 mph 74 % 0.0 in
17:59 5.6 °F 2.0 °F 1009.0 in WSW 13.0 mph 21.2 mph 74 % 0.0 in
18:06 5.5 °F 2.0 °F 1009.0 in WSW 13.0 mph 19.5 mph 74 % 0.0 in
18:17 5.4 °F 2.0 °F 1008.0 in WSW 14.0 mph 21.2 mph 75 % 0.0 in
18:29 5.3 °F 2.0 °F 1008.0 in West 12.2 mph 18.3 mph 75 % 0.0 in
18:39 5.1 °F 1.0 °F 1008.0 in Calm   16.9 mph 76 % 0.0 in
18:46 4.9 °F 1.0 °F 1008.0 in WSW 6.4 mph 13.0 mph 76 % 0.0 in
18:55 4.7 °F 1.0 °F 1008.0 in WSW 12.2 mph 12.2 mph 77 % 0.0 in
19:07 5.0 °F 2.0 °F 1008.0 in WSW 14.8 mph 16.6 mph 77 % 0.0 in
19:17 4.8 °F 1.0 °F 1008.0 in WSW 11.6 mph 15.8 mph 77 % 0.0 in
19:29 4.3 °F 1.0 °F 1008.0 in WSW 4.7 mph 9.7 mph 77 % 0.0 in
19:45 3.9 °F 1.0 °F 1009.0 in Calm   7.9 mph 78 % 0.0 in
20:02 3.8 °F 1.0 °F 1009.0 in Calm   7.6 mph 79 % 0.0 in
20:12 3.4 °F 0.0 °F 1009.0 in SW 6.4 mph 8.7 mph 79 % 0.0 in
20:22 3.3 °F 1.0 °F 1009.0 in WSW 6.4 mph 8.7 mph 80 % 0.0 in
20:27 3.2 °F 1.0 °F 1009.0 in WSW 6.9 mph 7.9 mph 81 % 0.0 in
20:36 3.0 °F 0.0 °F 1009.0 in Calm   6.9 mph 81 % 0.0 in
20:41 2.9 °F 1.0 °F 1009.0 in Calm   4.0 mph 82 % 0.0 in
20:46 2.8 °F 1.0 °F 1009.0 in Calm   4.0 mph 82 % 0.0 in
20:51 2.6 °F 0.0 °F 1009.0 in Calm   5.8 mph 82 % 0.0 in
20:56 2.5 °F 0.0 °F 1009.0 in Calm   5.8 mph 82 % 0.0 in
21:01 2.4 °F 0.0 °F 1009.0 in Calm   6.4 mph 83 % 0.0 in
21:06 2.5 °F 0.0 °F 1009.0 in Calm   7.6 mph 83 % 0.0 in
21:12 2.8 °F 1.0 °F 1009.0 in WSW 8.7 mph 9.3 mph 84 % 0.0 in
21:17 3.0 °F 1.0 °F 1009.0 in Calm   10.1 mph 85 % 0.0 in
21:22 3.2 °F 1.0 °F 1009.0 in West 9.0 mph 10.1 mph 86 % 0.0 in
21:27 3.4 °F 1.0 °F 1009.0 in WSW 6.1 mph 9.3 mph 86 % 0.0 in
21:32 3.6 °F 2.0 °F 1009.0 in WSW 9.0 mph 9.0 mph 86 % 0.0 in
21:38 3.7 °F 2.0 °F 1009.0 in WSW 9.0 mph 12.2 mph 86 % 0.0 in
21:41 3.9 °F 2.0 °F 1009.0 in WSW 11.1 mph 12.2 mph 87 % 0.0 in
21:44 3.9 °F 2.0 °F 1009.0 in SW 8.7 mph 13.7 mph 87 % 0.0 in
21:46 4.1 °F 2.0 °F 1009.0 in WSW 9.7 mph 13.7 mph 87 % 0.0 in
21:51 4.3 °F 2.0 °F 1009.0 in SW 8.7 mph 13.7 mph 86 % 0.0 in
21:56 4.3 °F 2.0 °F 1009.0 in WSW 7.9 mph 12.2 mph 86 % 0.0 in
22:02 4.4 °F 2.0 °F 1009.0 in SW 10.8 mph 13.7 mph 86 % 0.0 in
22:05 4.6 °F 3.0 °F 1009.0 in WSW 14.0 mph 14.0 mph 86 % 0.0 in
22:10 4.6 °F 3.0 °F 1009.0 in WSW 10.8 mph 14.0 mph 86 % 0.0 in
22:11 4.6 °F 3.0 °F 1008.0 in WSW 9.3 mph 14.0 mph 86 % 0.0 in
22:15 4.8 °F 3.0 °F 1008.0 in WSW 10.5 mph 13.7 mph 85 % 0.0 in
22:20 5.2 °F 3.0 °F 1008.0 in WSW 14.0 mph 19.5 mph 85 % 0.0 in
22:21 5.3 °F 3.0 °F 1008.0 in West 28.0 mph 28.0 mph 85 % 0.0 in
22:22 5.3 °F 3.0 °F 1008.0 in West 16.3 mph 28.0 mph 85 % 0.0 in
22:24 5.5 °F 4.0 °F 1008.0 in WSW 10.8 mph 28.0 mph 85 % 0.0 in
22:26 5.5 °F 4.0 °F 1008.0 in West 13.0 mph 28.0 mph 85 % 0.0 in
22:31 5.5 °F 4.0 °F 1008.0 in West 21.2 mph 21.2 mph 85 % 0.0 in
22:32 5.5 °F 4.0 °F 1008.0 in WSW 20.1 mph 22.7 mph 85 % 0.0 in
22:33 5.5 °F 4.0 °F 1008.0 in West 15.1 mph 22.7 mph 85 % 0.0 in
22:37 6.1 °F 3.0 °F 1008.0 in West 12.6 mph 22.7 mph 80 % 0.0 in
22:39 6.1 °F 3.0 °F 1008.0 in West 16.6 mph 22.7 mph 80 % 0.0 in
22:44 6.2 °F 3.0 °F 1008.0 in WSW 12.6 mph 22.7 mph 78 % 0.0 in
22:48 6.2 °F 3.0 °F 1008.0 in West 7.6 mph 19.8 mph 78 % 0.0 in
22:49 6.1 °F 3.0 °F 1008.0 in West 11.9 mph 19.8 mph 78 % 0.0 in
22:53 6.1 °F 3.0 °F 1008.0 in WSW 16.9 mph 19.5 mph 78 % 0.0 in
22:59 6.2 °F 3.0 °F 1007.0 in West 12.6 mph 17.2 mph 77 % 0.0 in
23:04 6.1 °F 3.0 °F 1007.0 in WSW 8.7 mph 17.2 mph 77 % 0.0 in
23:09 6.1 °F 3.0 °F 1007.0 in WSW 7.9 mph 17.2 mph 77 % 0.0 in
23:14 6.0 °F 3.0 °F 1007.0 in WSW 8.7 mph 15.8 mph 77 % 0.0 in
23:19 5.8 °F 3.0 °F 1007.0 in WSW 11.6 mph 13.7 mph 78 % 0.0 in
23:24 5.8 °F 3.0 °F 1007.0 in WSW 9.7 mph 12.2 mph 78 % 0.0 in
23:29 5.8 °F 3.0 °F 1007.0 in WSW 9.7 mph 12.2 mph 79 % 0.0 in
23:34 5.8 °F 3.0 °F 1007.0 in WSW 12.2 mph 15.8 mph 80 % 0.0 in
23:39 5.8 °F 3.0 °F 1007.0 in WSW 11.9 mph 16.9 mph 80 % 0.0 in
23:44 5.8 °F 3.0 °F 1007.0 in SW 10.5 mph 16.9 mph 80 % 0.0 in
23:49 6.1 °F 3.0 °F 1007.0 in WSW 20.9 mph 26.2 mph 80 % 0.0 in
23:54 6.2 °F 3.0 °F 1007.0 in WSW 23.0 mph 26.2 mph 80 % 0.0 in
23:59 6.2 °F 3.0 °F 1007.0 in WSW 16.3 mph 23.0 mph 81 % 0.0 in
Le Gheer Warneton
Courtoisie de Weather Underground - 1.5 mb

Mise a jour : 17/02/2018 20:25:11
Généré par Cumulus 1.9.4 (1099)